Regional Weather Roundup
Issued by NWS

Home | Current Version | Previous Version | Text Only | Print | Product List | Glossary Off
Versions: 1 2 3 4 5 6 7 8 9 10 11 12 13 14 15 16 17 18 19 20 21 22 23 24 25 26 27 28 29 30 31 32 33 34 35 36 37 38 39 40 41 42 43 44 45 46 47 48 49 50

000
ASUS43 KOAX 170902
RWRNE

WEATHER ROUNDUP FOR NEBRASKA
NATIONAL WEATHER SERVICE OMAHA NE
300 AM CST WED JAN 17 2018

NOTES: SATELLITE DATA IS BEING USED TO AUGMENT CLOUD COVER ABOVE
       12000 FEET.
       "FAIR" INDICATES FEW OR NO CLOUDS BELOW 12,000 FEET WITH NO
       SIGNIFICANT WEATHER AND/OR OBSTRUCTIONS TO VISIBILITY.


NEZ001>004-019>022-054>056-171000-
NEBRASKA PANHANDLE

CITY           SKY/WX    TMP DP  RH WIND       PRES   REMARKS
SCOTTSBLUFF    CLEAR      4   1  88 NW7       30.24R WCI  -8
ALLIANCE       CLEAR      3  -1  83 CALM      30.22S
CHADRON        CLEAR      8   2  76 SW3       30.23S
GORDON         FAIR      13   3  64 W5        30.21F WCI   6
KIMBALL        CLEAR     14   6  70 W9        30.22R WCI   2
SIDNEY         CLEAR      4  -1  80 W8        30.23F WCI  -9
$$

NEZ057>060-069>072-079>082-171000-
SOUTHWEST NEBRASKA

CITY           SKY/WX    TMP DP  RH WIND       PRES   REMARKS
NORTH PLATTE   CLEAR      8  -2  63 S6        30.37S WCI  -2
IMPERIAL       CLEAR      8   1  73 S3        30.31F
LEXINGTON      CLEAR     12   1  60 S13       30.42S WCI  -3
MCCOOK         CLEAR      5  -3  69 S5        30.42R WCI  -4
OGALLALA       CLEAR      8   2  75 W5        30.31F WCI   0
$$

NEZ005>010-023>029-035>040-094-171000-
NORTH CENTRAL NEBRASKA

CITY           SKY/WX    TMP DP  RH WIND       PRES   REMARKS
VALENTINE      CLEAR     11   3  70 SW6       30.26F WCI   1
AINSWORTH      CLEAR     13   3  64 SW16      30.29S WCI  -3
BROKEN BOW     CLEAR      6  -3  66 SW5       30.38S WCI  -3
O`NEILL        CLEAR      8   1  72 S9        30.37S WCI  -5
ORD            CLEAR      9   1  70 SW10      30.41F WCI  -5
THEDFORD       CLEAR     11   2  66 SW7       30.31S WCI   0
$$

NEZ041-046>049-061>064-073>077-083>087-171000-
SOUTH CENTRAL NEBRASKA

CITY           SKY/WX    TMP DP  RH WIND       PRES   REMARKS
GRAND ISLAND   CLOUDY     6   0  76 SW12      30.49S WCI  -9
AURORA         CLOUDY     5  -2  74 SW10      30.50F WCI -10
HASTINGS       CLOUDY     4  -2  76 SW7       30.50S WCI  -8
HEBRON         CLOUDY     5   0  81 S10       30.58S WCI -10
HOLDREGE       CLOUDY     7   1  77 SW12      30.45F WCI  -9
KEARNEY        CLOUDY     5  -1  76 SW12      30.47S WCI -11
YORK           CLOUDY     5   0  78 SW9       30.53S WCI  -9
$$

NEZ011>018-030>034-042>045-171000-
NORTHEAST NEBRASKA

CITY           SKY/WX    TMP DP  RH WIND       PRES   REMARKS
NORFOLK        CLOUDY     7   0  73 S14       30.47F WCI -10
ALBION         CLOUDY     6   0  75 S5        30.47S WCI  -3
BLAIR          CLOUDY     4   1  84 S5        30.55S WCI  -5
COLUMBUS       CLOUDY     5   0  79 SW7       30.53F WCI  -7
FREMONT        CLEAR      6   1  78 SW9       30.56S WCI  -8
TEKAMAH        CLOUDY    -3  -7  82 S8        30.57F WCI -18
WAYNE          CLOUDY     6   0  76 S8        30.48F WCI  -7
$$

NEZ050>053-065>068-078-088>093-171000-
SOUTHEAST NEBRASKA

CITY           SKY/WX    TMP DP  RH WIND       PRES   REMARKS
LINCOLN        CLOUDY     2  -2  83 S5        30.60S WCI  -8
OMAHA EPPLEY   CLOUDY     1  -3  83 SE9       30.60F WCI -14
BEATRICE       CLOUDY    -1  -6  82 CALM      30.60S
FALLS CITY     CLOUDY    -4  -8  83 CALM      30.65R
NEBRASKA CITY  CLOUDY     1  -2  90 SW6       30.61S WCI -11
PLATTSMOUTH    CLOUDY     4   1  83 SW5       30.60S WCI  -5
$$

NEZ044-045-051>053-067-171000-
OMAHA AREA

CITY           SKY/WX    TMP DP  RH WIND       PRES   REMARKS
OMAHA EPPLEY   CLOUDY     1  -3  83 SE9       30.60F WCI -14
BLAIR          CLOUDY     4   1  84 S5        30.55S WCI  -5
FREMONT        CLEAR      6   1  78 SW9       30.56S WCI  -8
MILLARD        CLOUDY     3  -1  83 CALM      30.60S
OFFUTT AFB     CLOUDY    -7 -12  79 CALM      30.60S
PLATTSMOUTH    CLOUDY     4   1  83 SW5       30.60S WCI  -5
WAHOO          FAIR       3  -2  78 S3        30.56F
$$



USA.gov is the U.S. government's official web portal to all federal, state and local government web resources and services.